Terug naar catalogus

STARLINK-4350

ActiefCommunicatieSSO
NORAD 53045·PAYLOAD·🇺🇸 United States

Gelanceerd Jul 11, 2022 vanaf Vandenberg Space Force Base

Loading…

Volgende Passages (komende 24 uur)

TLE

VersSource: CelesTrak SupGP

Epoch: Sep 14, 2026, 20:47 UTC

1 53045C 22077C   26257.86645833  .00063052  00000+0  19573-2 0  2579
2 53045  97.2856  73.6921 0001552  92.7191 338.3665 15.33406564    18

Volg STARLINK-4350 in realtime met AllMySat

Download on the App Store